Voltar ao catálogo

COSMOS 1275 DEB

AtivoPO
NORAD 39935·DEBRIS·🇷🇺 Russia

Lançado Jun 4, 1981 de Plesetsk Cosmodrome

Loading…

Próximas Passagens (próximas 24 horas)

TLE

EnvelhecendoSource: Space-Track

Época: Sep 9, 2026, 19:11 UTC

1 39935U 81053MV  26252.79952271  .00000602  00000-0  41345-3 0  9993
2 39935  82.8212  92.9525 0034040 253.9387 120.4421 13.97726387623901

Acompanhe COSMOS 1275 DEB em tempo real com AllMySat

Download on the App Store